KB5SQG Weather Reports


time (UTC)temp
C
wind
direction
speed
KPH
gust
KPH
rain 1hr
cm
rain 24hr
cm
rain mn
cm
humidity
%
barometer
mb
20260510010837 29 0.0 1.6 0.00 0.00 0.00 51 1008.4
20260510005816 30 0.0 0.0 0.00 0.00 0.00 50 1008.2
20260510004817 30 0.0 1.6 0.00 0.00 0.00 49 1008.3
20260510003816 31 0.0 0.0 0.00 0.00 0.00 47 1008.3
20260510002817 31 0.0 1.6 0.00 0.00 0.00 43 1008.3
20260510001816 32 0.0 0.0 0.00 0.00 0.00 42 1008.2
20260510000816 33 0.0 0.0 0.00 0.00 0.00 40 1008.3
20260509235816 34 0.0 0.0 0.00 0.00 0.00 39 1008.2
20260509234816 35 0.0 0.0 0.00 0.00 0.00 38 1008.3
20260509233816 36 0.0 0.0 0.00 0.00 0.00 36 1008.3
20260509232817 36 0.0 0.0 0.00 0.00 0.00 35 1008.3
20260509231816 36 0.0 0.0 0.00 0.00 0.00 36 1008.3
20260509230817 35 0.0 0.0 0.00 0.00 0.00 37 1008.3
20260509225817 35 0.0 0.0 0.00 0.00 0.00 37 1008.4
20260509224816 36 0.0 0.0 0.00 0.00 0.00 35 1008.3
20260509223816 36 0.0 0.0 0.00 0.00 0.00 35 1008.3
20260509222816 36 0.0 0.0 0.00 0.00 0.00 38 1008.3
20260509221837 36 0.0 0.0 0.00 0.00 0.00 34 1008.3
20260509220817 36 0.0 0.0 0.00 0.00 0.00 35 1008.3
20260509215817 36 0.0 0.0 0.00 0.00 0.00 34 1008.4
20260509214817 36 0.0 0.0 0.00 0.00 0.00 36 1008.4
20260509213817 37 0.0 0.0 0.00 0.00 0.00 33 1008.6
20260509212817 37 0.0 0.0 0.00 0.00 0.00 34 1008.6
20260509211817 36 0.0 0.0 0.00 0.00 0.00 36 1008.7
20260509210818 36 0.0 0.0 0.00 0.00 0.00 37 1008.9
20260509205818 36 0.0 0.0 0.00 0.00 0.00 36 1009.1
20260509204817 36 0.0 0.0 0.00 0.00 0.00 37 1009.2
20260509203817 36 0.0 0.0 0.00 0.00 0.00 37 1009.3
20260509202817 36 0.0 0.0 0.00 0.00 0.00 38 1009.5
20260509201817 35 0.0 1.6 0.00 0.00 0.00 36 1009.6
20260509200817 35 0.0 0.0 0.00 0.00 0.00 40 1009.6
20260509195817 35 0.0 0.0 0.00 0.00 0.00 39 1009.8
20260509194817 35 0.0 0.0 0.00 0.00 0.00 40 1010.0
20260509193817 34 0.0 0.0 0.00 0.00 0.00 41 1010.1
20260509192817 34 135 1.6 3.2 0.00 0.10 0.00 41 1010.2
20260509191816 33 45 1.6 3.2 0.00 0.13 0.00 46 1010.3
20260509190816 32 0.0 1.6 0.00 0.13 0.00 46 1010.4
20260509185816 33 0.0 1.6 0.00 0.13 0.00 45 1010.6
20260509184836 32 293 1.6 3.2 0.00 0.13 0.00 47 1010.6
20260509183817 31 0.0 0.0 0.00 0.13 0.00 48 1010.8
20260509182837 31 270 1.6 1.6 0.00 0.13 0.00 47 1011.0
20260509181817 32 45 1.6 4.8 0.00 0.13 0.00 46 1011.1
20260509180817 31 0.0 1.6 0.00 0.13 0.00 50 1011.2
20260509175817 30 23 1.6 3.2 0.00 0.13 0.00 50 1011.4
20260509174817 30 23 1.6 3.2 0.00 0.13 0.00 52 1011.5
20260509173816 31 270 4.8 6.4 0.00 0.13 0.00 47 1011.6
20260509172816 30 0.0 1.6 0.00 0.13 0.00 53 1011.8
20260509171816 31 90 1.6 3.2 0.00 0.13 0.00 52 1011.9
20260509170817 30 113 1.6 4.8 0.00 0.13 0.00 53 1012.1
20260509165837 28 0.0 1.6 0.00 0.13 0.00 57 1012.0
20260509164937 28 0.0 1.6 0.00 0.13 0.00 57 1012.1
20260509163817 28 338 1.6 3.2 0.00 0.13 0.00 58 1012.3
20260509162836 27 0.0 1.6 0.00 0.13 0.00 57 1012.2
20260509161816 26 0.0 1.6 0.00 0.13 0.00 60 1012.4
20260509160816 26 0.0 0.0 0.00 0.13 0.00 61 1012.4
20260509155817 26 293 1.6 3.2 0.00 0.13 0.00 63 1012.6
20260509154837 26 293 1.6 3.2 0.00 0.13 0.00 67 1012.6
20260509153816 24 0.0 1.6 0.00 0.13 0.00 72 1012.5
20260509152836 23 248 1.6 1.6 0.00 0.13 0.00 72 1012.5
20260509151817 23 0.0 0.0 0.00 0.13 0.00 72 1012.6
20260509150837 23 0.0 1.6 0.00 0.13 0.00 73 1012.8
20260509145817 23 248 3.2 3.2 0.00 0.13 0.00 74 1012.9
20260509144852 23 248 3.2 6.4 0.00 0.13 0.00 74 1012.9
20260509143817 23 270 3.2 8.0 0.00 0.13 0.00 74 1013.0
20260509142817 22 0.0 0.0 0.00 0.13 0.00 76 1012.9
20260509141817 22 0.0 1.6 0.00 0.13 0.00 76 1013.0
20260509140817 22 0.0 0.0 0.00 0.13 0.00 76 1013.0
20260509135816 21 0.0 0.0 0.00 0.13 0.00 78 1013.1
20260509134817 21 248 1.6 3.2 0.00 0.13 0.00 77 1013.3
20260509133837 21 0.0 0.0 0.00 0.13 0.00 80 1013.2
20260509132817 21 203 1.6 3.2 0.00 0.13 0.00 81 1012.8
20260509131817 20 0.0 0.0 0.00 0.13 0.00 82 1012.8
20260509130817 19 0.0 1.6 0.00 0.13 0.00 87 1012.6
20260509125816 18 0.0 0.0 0.00 0.13 0.00 91 1012.6
20260509124817 17 0.0 0.0 0.00 0.13 0.00 91 1012.5
20260509123817 17 0.0 0.0 0.00 0.13 0.00 91 1012.4
20260509122817 17 0.0 0.0 0.00 0.13 0.00 91 1012.3
20260509121817 17 0.0 0.0 0.00 0.13 0.00 91 1012.3
20260509120817 17 0.0 0.0 0.00 0.13 0.00 90 1012.3
20260509115837 17 0.0 0.0 0.00 0.13 0.00 90 1012.3
20260509114817 17 0.0 0.0 0.00 0.13 0.00 89 1012.3
20260509113817 17 0.0 0.0 0.00 0.13 0.00 89 1012.1
20260509112817 17 0.0 0.0 0.00 0.13 0.00 88 1012.2
20260509111817 18 0.0 1.6 0.00 0.13 0.00 88 1012.0
20260509110817 18 0.0 1.6 0.00 0.13 0.00 88 1012.0
20260509105817 18 0.0 1.6 0.00 0.13 0.00 88 1011.7
20260509104817 18 0.0 0.0 0.00 0.13 0.00 88 1011.6
20260509103817 18 0.0 1.6 0.00 0.13 0.00 87 1011.0
20260509102817 18 0.0 0.0 0.00 0.13 0.00 86 1010.8
20260509101817 19 0.0 0.0 0.00 0.13 0.00 86 1010.9
20260509100817 20 0.0 1.6 0.00 0.13 0.00 86 1010.8
20260509095817 20 0.0 3.2 0.00 0.13 0.00 86 1010.7
20260509094817 21 0.0 3.2 0.00 0.13 0.00 85 1010.3
20260509093817 21 315 3.2 11.3 0.00 0.13 0.00 86 1009.2
20260509092817 21 293 4.8 9.7 0.00 0.13 0.00 87 1008.8
20260509091817 21 293 3.2 11.3 0.00 0.13 0.00 89 1008.3
20260509090817 20 158 1.6 3.2 0.00 0.13 0.00 89 1009.1
20260509085817 20 158 3.2 12.9 0.00 0.13 0.00 90 1008.8
20260509084817 20 0.0 0.0 0.00 0.13 0.00 87 1009.4
20260509083817 20 0.0 0.0 0.00 0.13 0.00 86 1010.3
20260509082817 20 0.0 1.6 0.00 0.13 0.00 86 1010.3
20260509081817 20 23 1.6 3.2 0.00 0.13 0.00 86 1010.6
20260509080817 20 315 1.6 3.2 0.00 0.13 0.00 86 1010.6
20260509075817 20 338 1.6 3.2 0.00 0.13 0.00 87 1010.7
20260509074817 20 0.0 0.0 0.00 0.13 0.00 86 1011.1
20260509073817 20 0.0 1.6 0.00 0.13 0.00 84 1011.4
20260509072817 20 158 1.6 3.2 0.00 0.13 0.00 83 1011.7
20260509071817 20 0.0 0.0 0.00 0.13 0.00 83 1012.5
20260509070817 20 0.0 0.0 0.00 0.13 0.00 83 1013.1
20260509065817 20 0.0 1.6 0.00 0.13 0.00 85 1013.6
20260509064817 20 68 1.6 4.8 0.00 0.13 0.00 91 1014.2
20260509063817 20 0.0 3.2 0.00 0.13 0.00 93 1014.1
20260509062837 19 0.0 0.0 0.00 0.13 0.00 94 1013.9
20260509061817 19 0.0 0.0 0.00 0.13 0.00 94 1013.3
20260509060817 19 0.0 1.6 0.00 0.13 0.00 94 1013.6
20260509055817 19 0.0 0.0 0.00 0.13 0.00 93 1012.8
20260509054838 18 68 1.6 3.2 0.00 0.13 0.00 93 1012.6
20260509053817 19 0.0 0.0 0.00 0.13 0.00 92 1012.0
20260509052858 19 0.0 0.0 0.00 0.13 0.00 92 1012.1
20260509051817 19 0.0 0.0 0.00 0.13 0.00 91 1012.2
20260509050818 20 0.0 0.0 0.00 0.13 0.00 90 1012.2
20260509045816 20 0.0 0.0 0.00 0.13 0.13 90 1012.1
20260509044817 20 0.0 0.0 0.00 0.13 0.13 90 1011.9
20260509043817 20 0.0 0.0 0.00 0.13 0.13 89 1011.4
20260509042816 21 0.0 0.0 0.00 0.13 0.13 88 1011.3
20260509041836 21 0.0 0.0 0.00 0.13 0.13 88 1011.4
20260509040837 21 0.0 0.0 0.00 0.13 0.13 88 1011.2
20260509035817 21 0.0 1.6 0.00 0.13 0.13 88 1010.9
20260509034816 21 0.0 1.6 0.00 0.13 0.13 88 1010.8
20260509033816 21 0.0 0.0 0.00 0.13 0.13 88 1010.9
20260509032816 21 0.0 0.0 0.00 0.13 0.13 87 1010.7
20260509031817 21 0.0 1.6 0.00 0.13 0.13 87 1010.8
20260509030857 21 0.0 0.0 0.00 0.13 0.13 86 1010.6
20260509025817 21 0.0 0.0 0.00 0.13 0.13 85 1010.5
20260509024817 22 0.0 0.0 0.00 0.13 0.13 84 1010.4
20260509023816 22 0.0 0.0 0.00 0.13 0.13 84 1010.3
20260509022816 22 0.0 1.6 0.00 0.13 0.13 84 1009.9
20260509021816 22 0.0 0.0 0.00 0.13 0.13 84 1009.9
20260509020817 22 0.0 0.0 0.00 0.13 0.13 83 1009.9
20260509015817 22 0.0 0.0 0.00 0.13 0.13 83 1009.9
20260509014817 22 0.0 0.0 0.00 0.13 0.13 83 1009.9
20260509013816 22 0.0 0.0 0.00 0.13 0.13 83 1009.9
20260509012817 22 0.0 0.0 0.00 0.13 0.13 82 1009.9
20260509011816 22 0.0 0.0 0.00 0.13 0.13 81 1009.8